Regional Weather Roundup
Issued by NWS Goodland, KS

Home | Current Version | Previous Version | Text Only | Print | Product List | Glossary Off
Versions: 1 2 3 4 5 6 7 8 9 10 11 12 13 14 15 16 17 18 19 20 21 22 23 24 25 26 27 28 29 30 31 32 33 34 35 36 37 38 39 40 41 42 43 44 45 46 47 48 49 50

000
ASUS43 KGLD 171708
RWRGLD

GOODLAND FORECAST AREA HOURLY WEATHER ROUNDUP
NATIONAL WEATHER SERVICE GOODLAND KS
1000 AM MST TUE JAN 17 2017

...OFFICIAL OBSERVATIONS...

CITY           SKY/WX    TMP DP  RH WIND       PRES   REMARKS
GOODLAND KS    SUNNY     35  26  69 CALM      30.10S
HILL CITY KS   SUNNY     37  27  67 NW8       30.14R
IMPERIAL NEB   SUNNY     30  22  72 W6        30.10S
MCCOOK NEB     SUNNY     32  25  75 W7        30.11F
AKRON CO       SUNNY     34  25  69 SW10      30.07S
BURLINGTON CO  SUNNY     33  26  75 W8        30.10S
LIMON CO       PTSUNNY   34  30  85 W6        30.09R
$$

...UNOFFICIAL OBSERVATIONS...

CITY           SKY/WX    TMP DP  RH WIND       PRES   REMARKS
LENORA KS        N/A     34  32  92 NW6         N/A
NORTON KS      SUNNY     34  25  69 W9        30.12S
SHARON SPRINGS   N/A     38  31  77 CALM        N/A
TRENTON NEB      N/A     33  32  96 CALM        N/A
KIT CARSON CO    N/A     33  29  86 CALM        N/A
YUMA CO        FAIR      27  14  59 SW6       30.08F
$$




USA.gov is the U.S. government's official web portal to all federal, state and local government web resources and services.